Regional Weather Roundup
Issued by NWS New Orleans/Baton Rouge, LA

Home | Current Version | Previous Version | Text Only | Print | Product List | Glossary On
Versions: 1 2 3 4 5 6 7 8 9 10 11 12 13 14 15 16 17 18 19 20 21 22 23 24 25 26 27 28 29 30 31 32 33 34 35 36 37 38 39 40 41 42 43 44 45 46 47 48 49 50
000
ASUS44 KLIX 171113
RWRLIX
NEW ORLEANS REGIONAL WEATHER ROUNDUP
NATIONAL WEATHER SERVICE NEW ORLEANS LA
500 AM CST WED JAN 17 2018

NOTE: "FAIR" INDICATES FEW OR NO CLOUDS BELOW 12,000 FEET WITH NO
      SIGNIFICANT WEATHER AND/OR OBSTRUCTIONS TO VISIBILITY.
      SKY/WX - SKY CONDITION AND SIGNIFICANT WEATHER.
      TMP - AIR TEMPERATURE.     DP    - DEWPOINT TEMPERATURE.
      RH  - RELATIVE HUMIDITY.   PRES  - PRESSURE.
      HI  - HEAT INDEX.          WCI   - WIND CHILL INDEX.

*  THESE STATIONS ARE NOT NWS OR FAA STATIONS AND ARE NOT UNDER
   NWS QUALITY CONTROL.

LAZ038-040-048-061>063-065>067-069-171200-
SOUTHEAST LOUISIANA

CITY           SKY/WX    TMP DP  RH WIND       PRES   REMARKS
N.O. INTL ARPT   N/A     22  14  71 N16G25    30.59R WCI   8
N.O. LAKEFRONT   N/A     23  15  71 N23G32    30.59R WCI   7
N.O. DOWNTOWN*   N/A     22  14  71 N15G21    30.58R WCI   9
RESERVE*         N/A     20   9  60 N14G23    30.61S WCI   7
SLIDELL          N/A     18  10  71 N10       30.59R WCI   6
BATON ROUGE      N/A     16   4  59 N10       30.65R WCI   4
BOOTHVILLE     CLOUDY    29  25  85 N18G28    30.52S WCI  16
BELLE CHASSE     N/A     23  17  78 N12G18    30.56R WCI  12
BOGALUSA*        N/A     17   8  68 N10G18    30.62R WCI   4
GALLIANO*        N/A     23  16  74 N16G22    30.55R WCI  10
NEW ROADS*       N/A     16   4  60 N14G21    30.67R WCI   1
GONZALES*        N/A     18   8  65 MISG      30.62R
HAMMOND*         N/A     16   9  73 N13G18    30.63R WCI   2
HOUMA*           N/A     21  15  75 N15       30.57S WCI   8
PORT FOURCHON* SUNNY     27  19  74 N20       30.54S WCI  13

$$

MSZ070-080>082-171200-
SOUTHERN MISSISSIPPI

CITY           SKY/WX    TMP DP  RH WIND       PRES   REMARKS
MCCOMB           N/A     13   3  64 N10       30.60F WCI   0
GULFPORT       DRIZZLE   21  15  78 N14       30.55R WCI   8
BILOXI           N/A     22  15  77 N9        30.54R WCI  11
PASCAGOULA     MOCLDY    23  17  78 N12G18    30.53R WCI  12

$$

COASTAL OBSERVATIONS
LAKE AND NEARSHORE STATIONS

STATION/POSITION TIME  TEMP    WIND        PRES    WAVE
                       AIR SEA DIR/SP/G            HT/PER
                 (UTC) (F)     (DEG/KT/KT) (MB)    (FT/S)
PASCAGOULA       1048   24      10/  5/  6 1033.1
WAVELAND YACHT   1048   21 42  350/ 16/ 19 1034.6
GRAND ISLE       1048   27 48   10/ 17/ 21 1033.8
SOUTHWEST PASS   1048   31 45   10/ 25/ 29 1033.1
NEW CANAL        1048   24 45   10/ 13/ 15 1035.3
SHELL BEACH      1048   24 48  350/ 16/ 19 1034.5

OFFSHORE STATIONS

STATION/POSITION TIME  TEMP    WIND        PRES    WAVE
                       AIR SEA DIR/SP/G            HT/PER
                 (UTC) (F)     (DEG/KT/KT) (MB)    (FT/S)
64 S DAUPHIN ISL 1050   42 72  350/ 21/ 29 1031.3    7/ 6

$$




USA.gov is the U.S. government's official web portal to all federal, state and local government web resources and services.